Time,TemperatureF,DewpointF,PressureIn,WindDirection,WindDirectionDegrees,WindSpeedMPH,WindSpeedGustMPH,Humidity,HourlyPrecipIn,Conditions,Clouds,dailyrainin,SoftwareType,DateUTC
2013-01-15 00:02:00,8.0,5.0,-100.00,SE,125,9.0,12.0,92,0.00,,,0.00,,2013-01-15 00:02:00,
2013-01-15 00:12:00,8.0,5.0,-100.00,SE,125,11.0,12.0,91,0.00,,,0.00,,2013-01-15 00:12:00,
2013-01-15 00:22:00,8.0,5.0,-100.00,SE,125,11.0,14.0,89,0.00,,,0.00,,2013-01-15 00:22:00,
2013-01-15 00:32:00,8.0,5.0,-100.00,ESE,120,11.0,13.0,88,0.00,,,0.00,,2013-01-15 00:32:00,
2013-01-15 00:43:00,7.0,5.0,-100.00,SE,125,13.0,14.0,88,0.00,,,0.00,,2013-01-15 00:43:00,
2013-01-15 00:52:00,7.0,5.0,-100.00,SE,125,11.0,13.0,91,0.00,,,0.00,,2013-01-15 00:52:00,
2013-01-15 01:02:00,6.0,5.0,-100.00,SE,125,13.0,14.0,91,0.00,,,0.00,,2013-01-15 01:02:00,
2013-01-15 01:12:00,7.0,5.0,-100.00,SE,125,12.0,14.0,91,0.00,,,0.00,,2013-01-15 01:12:00,
2013-01-15 01:22:00,6.0,3.0,-100.00,SE,125,12.0,14.0,90,0.00,,,0.00,,2013-01-15 01:22:00,
2013-01-15 01:32:00,6.0,5.0,-100.00,ESE,120,11.0,15.0,91,0.00,,,0.00,,2013-01-15 01:32:00,
2013-01-15 01:42:00,6.0,3.0,-100.00,SE,125,12.0,14.0,91,0.00,,,0.00,,2013-01-15 01:42:00,
2013-01-15 01:52:00,6.0,3.0,-100.00,SE,125,11.0,14.0,91,0.00,,,0.00,,2013-01-15 01:52:00,
2013-01-15 02:02:00,6.0,3.0,-100.00,SE,125,12.0,14.0,90,0.00,,,0.00,,2013-01-15 02:02:00,
2013-01-15 02:12:00,5.0,3.0,-100.00,SE,125,13.0,16.0,91,0.00,,,0.00,,2013-01-15 02:12:00,
2013-01-15 02:22:00,4.0,3.0,-100.00,SE,130,13.0,15.0,92,0.00,,,0.00,,2013-01-15 02:22:00,
2013-01-15 02:32:00,4.0,3.0,-100.00,SE,130,14.0,15.0,93,0.00,,,0.00,,2013-01-15 02:32:00,
2013-01-15 02:42:00,5.0,3.0,-100.00,SE,130,14.0,17.0,92,0.00,,,0.00,,2013-01-15 02:42:00,
2013-01-15 02:52:00,5.0,3.0,-100.00,SE,130,14.0,16.0,92,0.00,,,0.00,,2013-01-15 02:52:00,
2013-01-15 03:02:00,6.0,5.0,-100.00,SE,135,14.0,17.0,91,0.00,,,0.00,,2013-01-15 03:02:00,
2013-01-15 03:12:00,7.0,5.0,-100.00,SE,135,14.0,17.0,90,0.00,,,0.00,,2013-01-15 03:12:00,
2013-01-15 03:22:00,7.0,5.0,-100.00,SE,140,14.0,16.0,91,0.00,,,0.00,,2013-01-15 03:22:00,
2013-01-15 03:33:00,6.0,3.0,-100.00,SE,140,14.0,16.0,91,0.00,,,0.00,,2013-01-15 03:33:00,
2013-01-15 03:42:00,6.0,5.0,-100.00,SE,145,13.0,15.0,93,0.00,,,0.00,,2013-01-15 03:42:00,
2013-01-15 03:52:00,5.0,3.0,-100.00,SSE,150,12.0,14.0,93,0.00,,,0.00,,2013-01-15 03:52:00,
2013-01-15 04:02:00,5.0,3.0,-100.00,SSE,155,8.0,12.0,94,0.00,,,0.00,,2013-01-15 04:02:00,
2013-01-15 04:12:00,5.0,3.0,-100.00,SSE,150,9.0,11.0,95,0.00,,,0.00,,2013-01-15 04:12:00,
2013-01-15 04:22:00,4.0,3.0,-100.00,SSE,150,10.0,11.0,96,0.00,,,0.00,,2013-01-15 04:22:00,
2013-01-15 04:32:00,4.0,3.0,-100.00,SSE,160,9.0,12.0,97,0.00,,,0.00,,2013-01-15 04:32:00,
2013-01-15 04:42:00,5.0,3.0,-100.00,SSE,160,9.0,11.0,97,0.00,,,0.00,,2013-01-15 04:42:00,
2013-01-15 04:52:00,4.0,3.0,-100.00,South,170,6.0,9.0,97,0.00,,,0.00,,2013-01-15 04:52:00,
2013-01-15 05:03:00,4.0,3.0,-100.00,South,185,3.0,6.0,99,0.00,,,0.00,,2013-01-15 05:03:00,
2013-01-15 05:22:00,4.0,3.0,-100.00,South,185,6.0,9.0,99,0.00,,,0.00,,2013-01-15 05:22:00,
2013-01-15 05:42:00,4.0,3.0,-100.00,SSW,195,7.0,7.0,99,0.00,,,0.00,,2013-01-15 05:42:00,
2013-01-15 05:52:00,3.0,3.0,-100.00,South,190,7.0,7.0,99,0.00,,,0.00,,2013-01-15 05:52:00,
2013-01-15 06:02:00,4.0,3.0,-100.00,SSW,205,9.0,9.0,99,0.00,,,0.00,,2013-01-15 06:02:00,
2013-01-15 06:12:00,4.0,3.0,-100.00,SSW,210,8.0,9.0,99,0.00,,,0.00,,2013-01-15 06:12:00,
2013-01-15 06:22:00,4.0,3.0,-100.00,SSW,210,9.0,9.0,99,0.00,,,0.00,,2013-01-15 06:22:00,
2013-01-15 06:32:00,4.0,3.0,-100.00,SW,230,7.0,9.0,99,0.00,,,0.00,,2013-01-15 06:32:00,
2013-01-15 06:42:00,3.0,3.0,-100.00,WSW,255,5.0,7.0,99,0.00,,,0.00,,2013-01-15 06:42:00,
2013-01-15 06:52:00,5.0,5.0,-100.00,WSW,250,6.0,7.0,99,0.00,,,0.00,,2013-01-15 06:52:00,
2013-01-15 07:02:00,2.0,1.0,-100.00,SSW,205,7.0,8.0,99,0.00,,,0.00,,2013-01-15 07:02:00,
2013-01-15 07:12:00,3.0,3.0,-100.00,SSW,205,7.0,8.0,99,0.00,,,0.00,,2013-01-15 07:12:00,
2013-01-15 07:42:00,4.0,3.0,-100.00,WSW,245,4.0,6.0,99,0.00,,,0.00,,2013-01-15 07:42:00,
2013-01-15 07:52:00,4.0,3.0,-100.00,SW,220,5.0,6.0,99,0.00,,,0.00,,2013-01-15 07:52:00,
2013-01-15 08:02:00,2.0,1.0,-100.00,South,170,6.0,7.0,99,0.00,,,0.00,,2013-01-15 08:02:00,
2013-01-15 08:42:00,2.0,1.0,-100.00,SSE,165,6.0,7.0,99,0.00,,,0.00,,2013-01-15 08:42:00,
2013-01-15 08:52:00,2.0,1.0,-100.00,South,175,6.0,7.0,99,0.00,,,0.00,,2013-01-15 08:52:00,
2013-01-15 09:02:00,1.0,1.0,-100.00,SSE,165,7.0,7.0,99,0.00,,,0.00,,2013-01-15 09:02:00,
2013-01-15 09:12:00,1.0,1.0,-100.00,South,175,6.0,7.0,99,0.00,,,0.00,,2013-01-15 09:12:00,
2013-01-15 09:22:00,2.0,1.0,-100.00,South,175,6.0,6.0,99,0.00,,,0.00,,2013-01-15 09:22:00,
2013-01-15 09:33:00,2.0,1.0,-100.00,South,180,6.0,7.0,99,0.00,,,0.00,,2013-01-15 09:33:00,
2013-01-15 09:52:00,1.0,1.0,-100.00,South,175,7.0,8.0,99,0.00,,,0.00,,2013-01-15 09:52:00,
2013-01-15 10:02:00,2.0,1.0,-100.00,South,170,6.0,6.0,99,0.00,,,0.00,,2013-01-15 10:02:00,
2013-01-15 10:11:00,2.0,1.0,-100.00,South,170,6.0,7.0,99,0.00,,,0.00,,2013-01-15 10:11:00,
2013-01-15 10:42:00,4.0,3.0,-100.00,South,170,4.0,6.0,99,0.00,,,0.00,,2013-01-15 10:42:00,
2013-01-15 11:02:00,4.0,3.0,-100.00,SSE,155,4.0,5.0,99,0.00,,,0.00,,2013-01-15 11:02:00,
2013-01-15 11:12:00,2.0,1.0,-100.00,SE,140,6.0,6.0,99,0.00,,,0.00,,2013-01-15 11:12:00,
2013-01-15 11:52:00,4.0,3.0,-100.00,ESE,120,6.0,7.0,99,0.00,,,0.00,,2013-01-15 11:52:00,
2013-01-15 12:03:00,2.0,1.0,-100.00,SE,125,7.0,8.0,99,0.00,,,0.00,,2013-01-15 12:03:00,
2013-01-15 12:22:00,3.0,3.0,-100.00,SE,125,8.0,9.0,99,0.00,,,0.00,,2013-01-15 12:22:00,
2013-01-15 12:33:00,4.0,3.0,-100.00,SE,135,7.0,9.0,99,0.00,,,0.00,,2013-01-15 12:33:00,
2013-01-15 12:53:00,5.0,5.0,-100.00,SE,145,11.0,12.0,99,0.00,,,0.00,,2013-01-15 12:53:00,
2013-01-15 13:23:00,6.0,5.0,-100.00,SE,145,10.0,11.0,99,0.00,,,0.00,,2013-01-15 13:23:00,
2013-01-15 13:33:00,5.0,5.0,-100.00,SE,145,12.0,13.0,99,0.00,,,0.00,,2013-01-15 13:33:00,
2013-01-15 13:43:00,6.0,5.0,-100.00,SE,145,10.0,15.0,99,0.00,,,0.00,,2013-01-15 13:43:00,
2013-01-15 14:12:00,4.0,3.0,-100.00,SE,140,7.0,12.0,99,0.00,,,0.00,,2013-01-15 14:12:00,
2013-01-15 14:23:00,4.0,3.0,-100.00,SE,140,9.0,9.0,98,0.00,,,0.00,,2013-01-15 14:23:00,
2013-01-15 14:33:00,3.0,3.0,-100.00,SE,135,8.0,9.0,97,0.00,,,0.00,,2013-01-15 14:33:00,
2013-01-15 14:43:00,4.0,3.0,-100.00,SE,135,9.0,9.0,97,0.00,,,0.00,,2013-01-15 14:43:00,
2013-01-15 14:53:00,4.0,3.0,-100.00,SE,135,8.0,9.0,96,0.00,,,0.00,,2013-01-15 14:53:00,
2013-01-15 15:03:00,4.0,3.0,-100.00,SE,140,7.0,9.0,95,0.00,,,0.00,,2013-01-15 15:03:00,
2013-01-15 15:12:00,4.0,3.0,-100.00,SE,140,6.0,8.0,95,0.00,,,0.00,,2013-01-15 15:12:00,
2013-01-15 15:23:00,5.0,3.0,-100.00,SSE,150,9.0,10.0,94,0.00,,,0.00,,2013-01-15 15:23:00,
2013-01-15 15:33:00,5.0,3.0,-100.00,SSE,150,7.0,9.0,93,0.00,,,0.00,,2013-01-15 15:33:00,
2013-01-15 15:43:00,6.0,5.0,-100.00,SE,145,9.0,11.0,94,0.00,,,0.00,,2013-01-15 15:43:00,
2013-01-15 15:52:00,6.0,5.0,-100.00,SE,145,9.0,10.0,95,0.00,,,0.00,,2013-01-15 15:52:00,
2013-01-15 16:03:00,7.0,5.0,-100.00,SE,145,9.0,11.0,93,0.00,,,0.00,,2013-01-15 16:03:00,
2013-01-15 16:12:00,9.0,7.0,-100.00,SSE,155,10.0,12.0,91,0.00,,,0.00,,2013-01-15 16:12:00,
2013-01-15 16:22:00,9.0,7.0,-100.00,SSE,155,11.0,13.0,91,0.00,,,0.00,,2013-01-15 16:22:00,
2013-01-15 16:33:00,10.0,7.0,-100.00,SSE,155,10.0,12.0,90,0.00,,,0.00,,2013-01-15 16:33:00,
2013-01-15 16:42:00,11.0,9.0,-100.00,SSE,160,11.0,12.0,89,0.00,,,0.00,,2013-01-15 16:42:00,
2013-01-15 16:53:00,12.0,9.0,-100.00,SSE,165,12.0,13.0,88,0.00,,,0.00,,2013-01-15 16:53:00,
2013-01-15 17:03:00,12.0,9.0,-100.00,South,170,11.0,12.0,87,0.00,,,0.00,,2013-01-15 17:03:00,
2013-01-15 17:12:00,13.0,10.0,-100.00,South,170,11.0,12.0,88,0.00,,,0.00,,2013-01-15 17:12:00,
2013-01-15 17:22:00,14.0,10.0,-100.00,South,190,11.0,14.0,85,0.00,,,0.00,,2013-01-15 17:22:00,
2013-01-15 17:33:00,15.0,12.0,-100.00,South,190,12.0,14.0,85,0.00,,,0.00,,2013-01-15 17:33:00,
2013-01-15 17:42:00,16.0,12.0,-100.00,South,190,11.0,14.0,83,0.00,,,0.00,,2013-01-15 17:42:00,
2013-01-15 17:53:00,17.0,12.0,-100.00,South,180,9.0,13.0,83,0.00,,,0.00,,2013-01-15 17:53:00,
2013-01-15 18:03:00,17.0,14.0,-100.00,South,180,10.0,12.0,83,0.00,,,0.00,,2013-01-15 18:03:00,
2013-01-15 18:12:00,18.0,12.0,-100.00,South,185,13.0,16.0,79,0.00,,,0.00,,2013-01-15 18:12:00,
2013-01-15 18:23:00,19.0,14.0,-100.00,South,180,11.0,15.0,80,0.00,,,0.00,,2013-01-15 18:23:00,
2013-01-15 18:33:00,19.0,14.0,-100.00,South,175,11.0,14.0,80,0.00,,,0.00,,2013-01-15 18:33:00,
2013-01-15 18:42:00,19.0,14.0,-100.00,South,185,12.0,16.0,77,0.00,,,0.00,,2013-01-15 18:42:00,
2013-01-15 18:53:00,20.0,14.0,-100.00,South,185,12.0,16.0,77,0.00,,,0.00,,2013-01-15 18:53:00,
2013-01-15 19:03:00,20.0,14.0,-100.00,South,175,12.0,15.0,79,0.00,,,0.00,,2013-01-15 19:03:00,
2013-01-15 19:12:00,20.0,14.0,-100.00,South,190,11.0,15.0,77,0.00,,,0.00,,2013-01-15 19:12:00,
2013-01-15 19:22:00,21.0,16.0,-100.00,South,185,12.0,15.0,77,0.00,,,0.00,,2013-01-15 19:22:00,
2013-01-15 19:33:00,22.0,18.0,-100.00,SSW,195,11.0,13.0,81,0.00,,,0.00,,2013-01-15 19:33:00,
2013-01-15 19:42:00,22.0,16.0,-100.00,SSW,195,12.0,14.0,79,0.00,,,0.00,,2013-01-15 19:42:00,
2013-01-15 19:52:00,22.0,18.0,-100.00,SSW,195,12.0,14.0,80,0.00,,,0.00,,2013-01-15 19:52:00,
2013-01-15 20:03:00,23.0,18.0,-100.00,SSW,195,12.0,15.0,80,0.00,,,0.00,,2013-01-15 20:03:00,
2013-01-15 20:12:00,23.0,18.0,-100.00,South,190,13.0,16.0,78,0.00,,,0.00,,2013-01-15 20:12:00,
2013-01-15 20:23:00,24.0,18.0,-100.00,South,190,12.0,15.0,78,0.00,,,0.00,,2013-01-15 20:23:00,
2013-01-15 20:33:00,24.0,18.0,-100.00,South,185,12.0,16.0,78,0.00,,,0.00,,2013-01-15 20:33:00,
2013-01-15 20:43:00,24.0,18.0,-100.00,South,185,12.0,15.0,76,0.00,,,0.00,,2013-01-15 20:43:00,
2013-01-15 20:52:00,24.0,19.0,-100.00,South,180,11.0,13.0,80,0.00,,,0.00,,2013-01-15 20:52:00,
2013-01-15 21:03:00,25.0,19.0,-100.00,South,180,10.0,14.0,80,0.00,,,0.00,,2013-01-15 21:03:00,
2013-01-15 21:12:00,25.0,19.0,-100.00,South,185,10.0,14.0,78,0.00,,,0.00,,2013-01-15 21:12:00,
2013-01-15 21:23:00,25.0,19.0,-100.00,South,180,11.0,12.0,80,0.00,,,0.00,,2013-01-15 21:23:00,
2013-01-15 21:33:00,25.0,19.0,-100.00,South,185,11.0,15.0,80,0.00,,,0.00,,2013-01-15 21:33:00,
2013-01-15 21:43:00,24.0,19.0,-100.00,South,185,12.0,14.0,80,0.00,,,0.00,,2013-01-15 21:43:00,
2013-01-15 21:52:00,24.0,19.0,-100.00,South,180,12.0,14.0,81,0.00,,,0.00,,2013-01-15 21:52:00,
2013-01-15 22:03:00,24.0,19.0,-100.00,South,185,11.0,13.0,82,0.00,,,0.00,,2013-01-15 22:03:00,
2013-01-15 22:12:00,24.0,19.0,-100.00,South,190,11.0,14.0,80,0.00,,,0.00,,2013-01-15 22:12:00,
2013-01-15 22:23:00,24.0,18.0,-100.00,South,190,11.0,13.0,80,0.00,,,0.00,,2013-01-15 22:23:00,
2013-01-15 22:33:00,23.0,18.0,-100.00,South,190,11.0,14.0,80,0.00,,,0.00,,2013-01-15 22:33:00,
2013-01-15 22:43:00,23.0,18.0,-100.00,SSW,195,12.0,14.0,79,0.00,,,0.00,,2013-01-15 22:43:00,
2013-01-15 22:52:00,23.0,16.0,-100.00,SSW,200,12.0,16.0,77,0.00,,,0.00,,2013-01-15 22:52:00,
2013-01-15 23:02:00,22.0,16.0,-100.00,SSW,200,12.0,16.0,78,0.00,,,0.00,,2013-01-15 23:02:00,
2013-01-15 23:12:00,22.0,16.0,-100.00,SSW,195,12.0,16.0,78,0.00,,,0.00,,2013-01-15 23:12:00,
2013-01-15 23:22:00,20.0,16.0,-100.00,South,190,10.0,13.0,82,0.00,,,0.00,,2013-01-15 23:22:00,
2013-01-15 23:32:00,20.0,16.0,-100.00,South,190,11.0,12.0,83,0.00,,,0.00,,2013-01-15 23:32:00,
2013-01-15 23:42:00,20.0,16.0,-100.00,South,190,10.0,13.0,84,0.00,,,0.00,,2013-01-15 23:42:00,
2013-01-15 23:53:00,19.0,16.0,-100.00,South,185,10.0,12.0,84,0.00,,,0.00,,2013-01-15 23:53:00,